This demonstration page uses our WeatherBlox Daily Observations layout. Learn more.

39.92423, -83.80882

Hourly Observations for April 12, 2015

Temp ( °F °C ) Dew Point ( °F °C ) Humidity (%) Winds ( mph kmh ) Pressure ( in mb ) Visibility ( mi km ) Precip ( " mm )
12:56 am 00:56 Clear 41 5 36 2.2 82 82 Calm 30.27 1025 7 11.26538 0 0
1:56 am 01:56 Clear 39 3.8 36 2.2 89 89 ESE 3 6 30.27 1025 7 11.26538 0 0
2:56 am 02:56 Clear 38 3.3 35 1.6 89 89 SE 6 9 30.26 1025 7 11.26538 0 0
3:56 am 03:56 Clear 38 3.3 34 1.1 86 86 SE 5 7 30.26 1025 7 11.26538 0 0
4:56 am 04:56 Clear 37 2.7 34 1.1 89 89 ESE 3 6 30.25 1025 7 11.26538 0 0
5:56 am 05:56 Clear 37 2.7 33 0.5 86 86 ESE 5 7 30.26 1025 7 11.26538 0 0
6:56 am 06:56 Clear 37 2.7 33 0.5 86 86 E 5 7 30.27 1025 7 11.26538 0 0
7:56 am 07:56 Sunny with Mist and Fog 37 2.7 33 0.5 86 86 E 6 9 30.28 1025 6 9.65604 0 0
8:56 am 08:56 Hazy 48 8.8 37 2.7 66 66 ESE 9 15 30.28 1025 6 9.65604 0 0
9:56 am 09:56 Hazy 54 12.2 38 3.3 55 55 ESE 10 17 30.29 1026 6 9.65604 0 0
10:56 am 10:56 Hazy 58 14.4 38 3.3 48 48 SE 10 17 30.27 1025 6 9.65604 0 0
11:56 am 11:56 Hazy 61 16.1 37 2.7 41 41 SSE 8 13 30.26 1025 6 9.65604 0 0
12:56 pm 12:56 Sunny 64 17.7 36 2.2 36 36 S 10 17 30.24 1024 7 11.26538 0 0
1:56 pm 13:56 Hazy 65 18.3 37 2.7 35 35 S 9 15 30.22 1023 6 9.65604 0 0
2:56 pm 14:56 Hazy 67 19.4 35 1.6 31 31 SSE 6 9 30.18 1022 6 9.65604 0 0
3:56 pm 15:56 Hazy 69 20.5 34 1.1 28 28 SE 9 15 30.16 1021 6 9.65604 0 0
4:56 pm 16:56 Hazy 71 21.6 34 1.1 26 26 SE 8 13 30.15 1021 6 9.65604 0 0
5:56 pm 17:56 Hazy 69 20.5 33 0.5 26 26 S 5 7 30.15 1021 6 9.65604 0 0
6:56 pm 18:56 Hazy 67 19.4 39 3.8 36 36 ESE 7 11 30.12 1020 6 9.65604 0 0
7:56 pm 19:56 Hazy 65 18.3 39 3.8 38 38 SE 6 9 30.12 1020 6 9.65604 0 0
8:56 pm 20:56 Clear 61 16.1 42 5.5 50 50 ESE 5 7 30.12 1020 8 12.87472 0 0
9:56 pm 21:56 Clear 58 14.4 43 6.1 58 58 ESE 6 9 30.12 1020 7 11.26538 0 0
10:56 pm 22:56 Clear 57 13.8 43 6.1 60 60 E 6 9 30.11 1020 8 12.87472 0 0
11:56 pm 23:56 Clear 58 14.4 41 5 53 53 E 3 6 30.1 1019 8 12.87472 0 0

Powered by AerisWeather